Location: Newark
(58.8333°N, 23.5833°E)
Time: 07:31:01
(UTC+00:00)

A-11 Canister half - Pass Details

Date: 23 November 2019
Orbit: 1515 x 1685 km, 47.2° (Epoch: 12 December)

Event Time Altitude Azimuth Distance (km) Brightness Sun altitude
Rises 14:33:04 0° 202° (SSW) 4,864 12.6 -5.4°
Reaches altitude 10° 14:36:58 10° 189° (S) 3,902 11.7 -5.9°
Maximum altitude 14:44:19 24° 141° (SE) 2,974 10.4 -6.7°
Drops below altitude 10° 14:51:45 10° 93° (E) 3,953 10.6 -7.5°
Enters shadow 14:53:45 - 86° (E) 4,433 10.8 -7.8°
Sets 14:55:43 0° 81° (E) 4,943 - -8.0°
